Nuiqsut, AK

8:33 PM AKDT on March 22, 2017 (GMT -0800)
Nuiqsut

Weather History for PAQT - December, 2013

Change the Weather History Date:

Sunday, December 1, 2013

  Actual Average (PAKU) Record (PAKU)
Temperature  
Mean Temperature 18 °F -  
Max Temperature 26 °F 0 °F 26 °F (2006)
Min Temperature 9 °F -7 °F -41 °F (1990)
Degree Days  
Heating Degree Days 48    
Moisture  
Dew Point 22 °F    
Average Humidity 96    
Maximum Humidity 100    
Minimum Humidity 84    
Precipitation  
Precipitation 0.00 in - - ()
Sea Level Pressure  
Sea Level Pressure 30.35 in    
Wind  
Wind Speed 26 mph (WSW)    
Max Wind Speed 33 mph    
Max Gust Speed 41 mph    
Visibility 3 miles    
Events Snow    
Averages and records for this station are not official NWS values.
T = Trace of Precipitation, MM = Missing Value Source: NWS Daily Summary

Daily Weather History Graph

Daily Weather History Graph

Search for Another Location

Airport or City:

Trip Planner

Search our weather history database for the weather conditions in past years. The results will help you decide how hot, cold, wet, or windy it might be!

Date:

Astronomy

Dec. 01, 2013 Rise Set
Actual Time 12:20 PM AKST 1:25 PM AKST
Civil Twilight 10:20 AM AKST 3:25 PM AKST
Nautical Twilight 8:41 AM AKST 5:04 PM AKST
Astronomical Twilight 7:23 AM AKST 6:22 PM AKST
Moon 9:44 AM AKST (12/1) 1:43 PM AKST (12/1)
Length of Visible Light 5h 05m
Length of Day
1h 04m
Waning Crescent, 2% of the Moon is Illuminated
Dec 1
Waning Crescent
Dec 2
New
Dec 9
First Quarter
Dec 17
Full
Dec 25
Last Quarter

Hourly Weather History & Observations

Time (AKST) Temp. Windchill Dew Point Humidity Pressure Visibility Wind Dir Wind Speed Gust Speed Precip Events Conditions
12:53 AM 9.0 °F -7.9 °F 5.0 °F 84% 30.30 in 10.0 mi South 15.0 mph - N/A   Mostly Cloudy
1:53 AM 14.0 °F -3.4 °F 10.0 °F 84% 30.29 in 10.0 mi SSW 19.6 mph - N/A   Overcast
2:53 AM 18.0 °F 0.2 °F 15.1 °F 88% 30.28 in 9.0 mi SW 24.2 mph - N/A   Overcast
3:53 AM 19.9 °F 2.8 °F 19.0 °F 96% 30.28 in 5.0 mi SW 24.2 mph - 0.00 in   Overcast
4:34 AM 21.0 °F 2.7 °F 19.9 °F 96% 30.26 in 2.0 mi SW 29.9 mph - 0.00 in Snow Light Snow
4:53 AM 21.9 °F 4.5 °F 19.9 °F 92% 30.27 in 2.0 mi SW 27.6 mph - 0.00 in Snow Light Snow
5:00 AM 21.9 °F 3.9 °F 21.0 °F 96% 30.26 in 1.5 mi SW 29.9 mph 36.8 mph 0.00 in Snow Light Snow
5:27 AM 21.9 °F 3.4 °F 21.9 °F 100% 30.25 in 0.8 mi SW 32.2 mph - 0.00 in Snow Light Snow
5:44 AM 23.0 °F 5.1 °F 21.9 °F 96% 30.26 in 1.2 mi SW 31.1 mph 39.1 mph 0.00 in Snow Light Snow
5:53 AM 23.0 °F 5.1 °F 21.9 °F 96% 30.27 in 1.5 mi SW 31.1 mph - 0.00 in Snow Blowing Snow
6:33 AM 23.0 °F 5.7 °F 21.9 °F 96% 30.27 in 2.0 mi SW 28.8 mph - N/A   Overcast
6:48 AM 23.0 °F 6.3 °F 21.2 °F 93% 30.27 in 4.0 mi SW 26.5 mph - N/A   Overcast
6:53 AM 23.0 °F 6.0 °F 21.9 °F 96% 30.28 in 4.0 mi SW 27.6 mph - N/A   Overcast
7:05 AM 23.0 °F 5.4 °F 21.9 °F 96% 30.27 in 2.5 mi SW 29.9 mph - N/A Snow Blowing Snow
7:51 AM 23.0 °F 4.9 °F 21.2 °F 93% 30.26 in 1.8 mi WSW 32.2 mph - N/A Snow Blowing Snow
7:53 AM 23.0 °F 5.1 °F 21.9 °F 96% 30.27 in 1.8 mi WSW 31.1 mph - N/A Snow Blowing Snow
8:53 AM 24.1 °F 6.1 °F 23.0 °F 96% 30.28 in 1.5 mi WSW 33.4 mph - N/A Snow Blowing Snow
9:31 AM 24.1 °F 6.4 °F 23.0 °F 96% 30.29 in 2.0 mi WSW 32.2 mph - N/A Snow Blowing Snow
9:46 AM 24.1 °F 6.1 °F 23.0 °F 96% 30.29 in 1.5 mi WSW 33.4 mph 40.3 mph N/A Snow Blowing Snow
9:53 AM 24.1 °F 6.1 °F 23.0 °F 96% 30.30 in 1.2 mi WSW 33.4 mph 41.4 mph N/A Snow Blowing Snow
10:53 AM 24.1 °F 6.4 °F 23.0 °F 96% 30.31 in 2.0 mi WSW 32.2 mph - N/A Snow Blowing Snow
11:22 AM 24.1 °F 6.1 °F 23.0 °F 96% 30.31 in 1.5 mi WSW 33.4 mph - N/A Snow Blowing Snow
11:36 AM 24.1 °F 6.6 °F 23.0 °F 96% 30.32 in 2.0 mi WSW 31.1 mph - N/A Snow Blowing Snow
11:53 AM 24.1 °F 7.4 °F 23.0 °F 96% 30.34 in 3.0 mi WSW 27.6 mph - N/A Snow Blowing Snow
12:25 PM 24.1 °F 7.1 °F 23.0 °F 96% 30.34 in 2.5 mi WSW 28.8 mph - N/A Snow Blowing Snow
12:36 PM 24.1 °F 7.1 °F 23.0 °F 96% 30.34 in 3.0 mi WSW 28.8 mph - N/A Snow Blowing Snow
12:53 PM 24.1 °F 7.1 °F 23.0 °F 96% 30.35 in 3.0 mi WSW 28.8 mph - N/A Snow Blowing Snow
1:11 PM 24.1 °F 6.6 °F 23.0 °F 96% 30.34 in 1.8 mi WSW 31.1 mph - N/A Snow Blowing Snow
1:53 PM 24.1 °F 7.1 °F 23.0 °F 96% 30.36 in 1.0 mi WSW 28.8 mph - 0.00 in Snow Light Snow
2:03 PM 24.1 °F 6.9 °F 23.0 °F 96% 30.36 in 1.2 mi WSW 29.9 mph - 0.00 in Snow Light Snow
2:27 PM 24.1 °F 7.1 °F 23.0 °F 96% 30.36 in 2.0 mi WSW 28.8 mph - 0.00 in Snow Light Snow
2:53 PM 24.1 °F 6.9 °F 23.0 °F 96% 30.37 in 2.5 mi WSW 29.9 mph - 0.00 in Snow Blowing Snow
3:18 PM 24.1 °F 7.1 °F 23.0 °F 96% 30.37 in 1.2 mi WSW 28.8 mph - 0.00 in Snow Light Snow
3:38 PM 24.1 °F 6.9 °F 23.0 °F 96% 30.37 in 0.8 mi WSW 29.9 mph - 0.00 in Snow Light Snow
3:50 PM 24.8 °F 7.9 °F 23.0 °F 93% 30.37 in 1.0 mi WSW 29.9 mph - 0.00 in Snow Light Snow
3:53 PM 24.1 °F 6.9 °F 23.0 °F 96% 30.37 in 1.0 mi WSW 29.9 mph - 0.00 in Snow Light Snow
4:20 PM 24.1 °F 7.4 °F 23.0 °F 96% 30.37 in 2.5 mi WSW 27.6 mph - 0.00 in Snow Blowing Snow
4:29 PM 24.1 °F 6.9 °F 23.0 °F 96% 30.37 in 2.5 mi WSW 29.9 mph - 0.00 in Snow Blowing Snow
4:51 PM 24.8 °F 8.1 °F 23.0 °F 93% 30.38 in 3.0 mi WSW 28.8 mph - 0.00 in Snow Blowing Snow
4:53 PM 24.1 °F 7.4 °F 23.0 °F 96% 30.38 in 3.0 mi WSW 27.6 mph - 0.00 in Snow Blowing Snow
5:53 PM 24.1 °F 7.7 °F 24.1 °F 100% 30.40 in 4.0 mi WSW 26.5 mph - N/A Snow Blowing Snow
6:53 PM 25.0 °F 9.5 °F 23.0 °F 92% 30.41 in 7.0 mi WSW 24.2 mph - 0.00 in   Overcast
7:05 PM 25.0 °F 9.2 °F 23.0 °F 92% 30.41 in 6.0 mi WSW 25.3 mph - 0.00 in Snow Light Snow
7:37 PM 25.0 °F 8.9 °F 24.1 °F 96% 30.41 in 3.0 mi WSW 26.5 mph - 0.00 in Snow Light Snow
7:53 PM 25.0 °F 9.2 °F 24.1 °F 96% 30.42 in 4.0 mi WSW 25.3 mph - 0.00 in Snow Blowing Snow
8:05 PM 25.0 °F 8.9 °F 24.1 °F 96% 30.42 in 3.0 mi WSW 26.5 mph - 0.00 in Snow Light Snow
8:13 PM 25.0 °F 9.2 °F 24.1 °F 96% 30.42 in 2.0 mi WSW 25.3 mph - 0.00 in Snow Light Snow
8:53 PM 25.0 °F 8.9 °F 25.0 °F 100% 30.43 in 3.0 mi WSW 26.5 mph - 0.00 in   Overcast
9:07 PM 25.0 °F 9.5 °F 25.0 °F 100% 30.43 in 4.0 mi WSW 24.2 mph - 0.00 in   Overcast
9:53 PM 25.0 °F 10.2 °F 25.0 °F 100% 30.45 in 5.0 mi WSW 21.9 mph - 0.00 in   Overcast
10:13 PM 25.0 °F 10.2 °F 25.0 °F 100% 30.46 in 4.0 mi WSW 21.9 mph - 0.00 in   Overcast
10:22 PM 25.0 °F 10.6 °F 25.0 °F 100% 30.46 in 2.5 mi WSW 20.7 mph - 0.00 in Snow Light Snow
10:45 PM 25.0 °F 10.6 °F 25.0 °F 100% 30.47 in 3.0 mi WSW 20.7 mph - 0.00 in   Overcast
10:53 PM 25.0 °F 10.6 °F 25.0 °F 100% 30.47 in 6.0 mi WSW 20.7 mph - 0.00 in   Overcast
11:31 PM 26.1 °F 12.7 °F 26.1 °F 100% 30.49 in 10.0 mi WSW 18.4 mph - N/A   Overcast
11:45 PM 26.1 °F 13.1 °F 26.1 °F 100% 30.50 in 10.0 mi WSW 17.3 mph - N/A   Overcast
11:53 PM 26.1 °F 13.6 °F 26.1 °F 100% 30.51 in 10.0 mi WSW 16.1 mph - N/A   Overcast